Regional Weather Roundup
Issued by NWS

Home | Current Version | Previous Version | Graphics & Text | Print | Product List | Glossary On
Versions: 1 2 3 4 5 6 7 8 9 10 11 12 13 14 15 16 17 18 19 20 21 22 23 24 25 26 27 28 29 30 31 32 33 34 35 36 37 38 39 40 41 42 43 44 45 46 47 48 49 50
000
ASUS43 KDTX 220201
RWRMI
MICHIGAN HOURLY REGIONAL WEATHER ROUNDUP
NATIONAL WEATHER SERVICE DETROIT/PONTIAC MI
900 PM EST SUN JAN 21 2018

NOTE: "FAIR" INDICATES FEW OR NO CLOUDS BELOW 12,000 FEET WITH NO
SIGNIFICANT WEATHER AND/OR OBSTRUCTION TO VISIBILITY.

MIZ047>049-052>055-059>063-066>070-074>076-081>083-220300-
SOUTHEAST LOWER MICHIGAN

CITY           SKY/WX    TMP DP  RH WIND       PRES   REMARKS
ADRIAN         FOG       37  37 100 CALM      30.01F VSB 1/4
ANN ARBOR      FOG       38  38 100 E3        30.01F VSB 1/4
BAD AXE        CLOUDY    32  32  99 CALM      30.04S FOG
CARO           CLOUDY    36  35  96 CALM      30.03R FOG
DETROIT CITY   FOG       37  37 100 E3        30.03F VSB 1/4
DETROIT        FOG       38  38 100 E3        30.03S VSB 1/4
FLINT          CLOUDY    38  37  97 SE8       30.02F FOG     WCI  32
GROSSE ILE     FOG       37  37  99 CALM      30.02S VSB 1/2
HILLSDALE      FOG       39  37  93 SE6       29.97F VSB 1/2 WCI  35
HOWELL         FOG       38  38 100 E5        30.00S VSB 1/4 WCI  34

CITY           SKY/WX    TMP DP  RH WIND       PRES   REMARKS
JACKSON        FOG       38  37  97 E5        29.98F VSB 1/2 WCI  34
LAMBERTVILLE   FOG       39  38  97 CALM      30.01S VSB 1/4
LANSING        FOG       37  37 100 E3        30.00S VSB 1/2
LAPEER         CLOUDY    37  36  97 CALM      30.02F FOG
MASON          LGT RAIN  39  36  87 SE5       29.99F VSB 1/2
MT. CLEMENS    FOG       36  35  96 E1        30.03S VSB 1/4
PONTIAC        FOG       37  37 100 SE5       30.00F VSB 1/4 WCI  33
PORT HOPE        N/A     31  29  92 SE6       30.02S WCI  25
PORT HURON     FOG       36  34  93 CALM      30.04S VSB 1/4
TRI CITIES     CLOUDY    35  35 100 NE5       30.02F FOG     WCI  31
MIDLAND        CLOUDY    35  34  96 CALM      30.01F FOG
TROY           FOG       38  37  97 CALM      30.05S VSB 1/4
SAGINAW HB     CLOUDY    34  32  93 CALM      30.02S FOG
$$
MIZ043>046-050>051-056>058-064>065-071>073-077>080-220300-
SOUTHWEST LOWER MICHIGAN

CITY           SKY/WX    TMP DP  RH WIND       PRES   REMARKS
BATTLE CREEK   FOG       39  39 100 SE5       29.97S VSB 1/2
BENTON HARBOR  FOG       42  40  92 SE7       29.93F VSB 3/4
BIG RAPIDS     MIX PCPN  35  34  95 E3        29.98S
COLDWATER      FOG       41  41 100 SE3       29.97S VSB 1/2
FREMONT        CLOUDY    37  36  94 E3        29.98S FOG
HOLLAND        FOG       39  38  96 SE7       29.96S VSB 1/2 WCI  34
GRAND RAPIDS   DRZL/FOG  37  36  96 E8        29.97F VSB 1/2 WCI  31
IONIA          MIX PCPN  37  37 100 E6        29.98F VSB 1/4 WCI  32
KALAMAZOO      FOG       41  39  93 CALM      29.96F VSB<1/4
LUDINGTON      DRIZZLE   38  37  96 E3        29.97S
MARSHALL       FOG       37  37  98 E3        29.97S VSB 1/2
MOUNT PLEASANT CLOUDY    37  36  95 E3        30.00F FOG
MUSKEGON       CLOUDY    39  36  89 E6        29.97F FOG     WCI  35
SOUTH HAVEN    FOG       40  39  96 E3        29.94F VSB 3/4
$$
MIZ016>042-220300-
NORTHERN LOWER MICHIGAN

CITY           SKY/WX    TMP DP  RH WIND       PRES   REMARKS
ALPENA         CLOUDY    32  32 100 E3        30.03S FOG
BEAVER ISLAND  FOG       34  33  98 NE5       30.02F VSB 1/2 WCI  30
BELLAIRE       CLOUDY    33  32  95 CALM      30.02S
CADILLAC       CLOUDY    35  35  98 CALM      29.98S FOG
CHARLEVOIX     CLOUDY    33  33 100 CALM      30.05S FOG
FRANKFORT      CLOUDY    37  35  93 NE8       30.00F WCI  30
GAYLORD        CLOUDY    34  31  88 CALM      30.00S
GRAYLING       FAIR      31  28  88 N3        30.01S
HARBOR SPRINGS CLOUDY    34  32  92 CALM      30.02S
HOUGHTON LAKE  MOCLDY    29  28  96 CALM      30.00S FOG
MANISTEE       CLOUDY    35  33  92 CALM      29.99S
OSCODA         FOG       31  31  99 SW3       30.03S VSB 1/4
PELLSTON       CLOUDY    34  32  92 CALM      30.03S
ROGERS CITY    FOG       32  32  99 CALM      30.05R VSB 1/2
TRAVERSE CITY  CLOUDY    35  34  96 CALM      30.01R FOG
$$
MIZ007>008-015-220300-
EASTERN UPPER MICHIGAN

CITY           SKY/WX    TMP DP  RH WIND       PRES   REMARKS
KINROSS        CLOUDY    32  30  92 E6        30.04S WCI  26
MACKINAC ISLAN CLOUDY    33  33 100 E7        30.02F FOG     WCI  27
NEWBERRY       CLOUDY    32  32  99 CALM      30.02S
S. S. MARIE    MOCLDY    35  31  85 CALM      30.04S
MUNISING         N/A     33  33 100 NE6       30.03F WCI  28
$$
MIZ004>006-011>014-085-220300-
CENTRAL UPPER MICHIGAN

CITY           SKY/WX    TMP DP  RH WIND       PRES   REMARKS
ESCANABA       CLOUDY    34  31  88 N6        30.02S WCI  29
MENOMINEE      CLOUDY    34  31  88 E9        30.01S WCI  27
SAWYER-GWINN   CLOUDY    32  30  93 N13       30.02S FOG     WCI  22
$$
MIZ001>003-009>011-084-220300-
WESTERN UPPER MICHIGAN

CITY           SKY/WX    TMP DP  RH WIND       PRES   REMARKS
IRON MOUNTAIN  CLOUDY    34  30  85 NE6       29.99R WCI  29
HOUGHTON       CLOUDY    30  26  85 NE8       30.05R WCI  22
COPPER HARBOR    N/A     29  27  92 E9        30.09S WCI  20
IRONWOOD       CLOUDY    30  29  96 E5        30.03R WCI  25
$$

ABBREVIATIONS USED IN REMARKS
   TC - TEMPERATURE IN CELSIUS
  WCI - WIND CHILL INDEX
   HX - HEAT INDEX
  VSB - VISIBILITY





USA.gov is the U.S. government's official web portal to all federal, state and local government web resources and services.